Orbital Elements
Epoch 2018 Mar. 23.0 TT = JDT 2458200.5
T 2018 Mar. 22.92204 TT MPCW
q 1.5078642 (2000.0) P Q
n 0.15691731 Peri. 315.28080 -0.57670073 -0.81686532
a 3.4042555 Node 169.91724 +0.76760870 -0.54689152
e 0.5570649 Incl. 3.97538 +0.27963038 -0.18341406
P 6.28
From 90 observations 2011 Nov. 3-2018 May 14, mean residual 0".4.
|